TimeMST,TemperatureF,Dew PointF,Humidity,Sea Level PressureIn,VisibilityMPH,Wind Direction,Wind SpeedMPH,Gust SpeedMPH,PrecipitationIn,Events,Conditions,WindDirDegrees,DateUTC
12:53 AM,12.9,3.9,67,29.98,10.0,NE,4.6,-,N/A,,Clear,50,2014-01-23 07:53:00
1:53 AM,12.9,3.9,67,29.96,10.0,Calm,Calm,-,N/A,,Clear,0,2014-01-23 08:53:00
2:53 AM,12.0,3.9,70,29.97,10.0,Calm,Calm,-,N/A,,Clear,0,2014-01-23 09:53:00
3:53 AM,10.0,1.9,70,29.99,10.0,North,-9999.0,-,N/A,,Clear,0,2014-01-23 10:53:00
4:53 AM,10.0,3.0,73,30.00,10.0,Calm,Calm,-,N/A,,Clear,0,2014-01-23 11:53:00
5:53 AM,15.1,7.0,70,30.02,10.0,Calm,Calm,-,N/A,,Overcast,0,2014-01-23 12:53:00
6:53 AM,12.0,3.9,70,30.12,10.0,Calm,Calm,-,N/A,,Clear,0,2014-01-23 13:53:00
7:53 AM,16.0,8.1,71,30.17,10.0,Calm,Calm,-,N/A,,Overcast,0,2014-01-23 14:53:00
8:53 AM,21.9,10.0,60,30.20,10.0,Calm,Calm,-,N/A,,Overcast,0,2014-01-23 15:53:00
9:53 AM,32.0,12.0,44,30.20,10.0,West,4.6,-,N/A,,Clear,280,2014-01-23 16:53:00
10:53 AM,39.9,12.0,32,30.19,10.0,Variable,3.5,-,N/A,,Clear,0,2014-01-23 17:53:00
11:53 AM,43.0,12.0,28,30.17,10.0,Variable,4.6,-,N/A,,Clear,0,2014-01-23 18:53:00
12:53 PM,46.0,12.0,25,30.16,10.0,ENE,8.1,-,N/A,,Clear,60,2014-01-23 19:53:00
1:53 PM,46.9,10.9,23,30.15,10.0,ENE,8.1,-,N/A,,Clear,60,2014-01-23 20:53:00
2:53 PM,46.0,10.0,23,30.18,10.0,East,10.4,18.4,N/A,,Clear,90,2014-01-23 21:53:00
3:53 PM,44.1,9.0,24,30.21,10.0,ENE,13.8,19.6,N/A,,Clear,60,2014-01-23 22:53:00
4:53 PM,42.1,9.0,26,30.23,10.0,ENE,12.7,-,N/A,,Clear,70,2014-01-23 23:53:00
5:53 PM,37.9,8.1,29,30.26,10.0,NNE,6.9,-,N/A,,Clear,30,2014-01-24 00:53:00
6:53 PM,33.1,9.0,37,30.33,10.0,East,3.5,-,N/A,,Clear,100,2014-01-24 01:53:00
7:53 PM,33.1,12.0,42,30.35,10.0,East,4.6,-,N/A,,Clear,90,2014-01-24 02:53:00
8:53 PM,30.9,12.9,47,30.37,10.0,Calm,Calm,-,N/A,,Clear,0,2014-01-24 03:53:00
9:53 PM,21.9,9.0,58,30.40,10.0,West,3.5,-,N/A,,Clear,260,2014-01-24 04:53:00
10:53 PM,21.9,10.0,60,30.40,10.0,Calm,Calm,-,N/A,,Clear,0,2014-01-24 05:53:00
11:53 PM,16.0,7.0,68,30.42,10.0,Calm,Calm,-,N/A,,Clear,0,2014-01-24 06:53:00